Three Rivers, MI

1:33 PM EST on December 10, 2016 (GMT -0500)
Three Rivers Municipal-Haines

Weather History for KHAI - September, 2012

Change the Weather History Date:

Sunday, September 9, 2012

  Actual Average Record
Temperature  
Mean Temperature 62 °F -  
Max Temperature 72 °F 78 °F 94 °F (1983)
Min Temperature 51 °F 53 °F 38 °F (1951)
Degree Days  
Heating Degree Days 4    
Growing Degree Days 12 (Base 50)    
Moisture  
Dew Point 52 °F    
Average Humidity 77    
Maximum Humidity 96    
Minimum Humidity 48    
Precipitation  
Precipitation 0.00 in - - ()
Sea Level Pressure  
Sea Level Pressure 29.99 in    
Wind  
Wind Speed 2 mph (NNW)    
Max Wind Speed 12 mph    
Max Gust Speed 16 mph    
Visibility 8 miles    
Events Fog , Rain    
Averages and records for this station are not official NWS values.
T = Trace of Precipitation, MM = Missing Value Source: NWS Daily Summary

Daily Weather History Graph

Daily Weather History Graph

Search for Another Location

Airport or City:

Trip Planner

Search our weather history database for the weather conditions in past years. The results will help you decide how hot, cold, wet, or windy it might be!

Date:

Astronomy

Sep. 09, 2012 Rise Set
Actual Time 7:16 AM EDT 8:01 PM EDT
Civil Twilight 6:48 AM EDT 8:29 PM EDT
Nautical Twilight 6:15 AM EDT 9:03 PM EDT
Astronomical Twilight 5:40 AM EDT 9:37 PM EDT
Moon 12:41 AM EDT (9/9) 3:50 PM EDT (9/9)
Length of Visible Light 13h 41m
Length of Day
12h 44m
Last Quarter, 39% of the Moon is Illuminated
Sep 9
Last Quarter
Sep 15
New
Sep 22
First Quarter
Sep 29
Full
Oct 8
Last Quarter

Hourly Weather History & Observations

Time (EDT) Temp. Dew Point Humidity Pressure Visibility Wind Dir Wind Speed Gust Speed Precip Events Conditions
12:14 AM 53.6 °F 50.4 °F 89% 29.87 in 10.0 mi Calm Calm - N/A   Scattered Clouds
12:39 AM 53.8 °F 50.4 °F 88% 29.87 in 10.0 mi Calm Calm - N/A   Scattered Clouds
12:54 AM 54.5 °F 50.5 °F 86% 29.86 in 10.0 mi Calm Calm - N/A   Scattered Clouds
1:14 AM 55.6 °F 50.9 °F 84% 29.86 in 10.0 mi Calm Calm - N/A   Scattered Clouds
1:34 AM 55.8 °F 52.0 °F 87% 29.87 in 10.0 mi Calm Calm - N/A   Mostly Cloudy
1:54 AM 55.4 °F 52.5 °F 90% 29.87 in 10.0 mi South 3.5 mph - N/A   Overcast
2:14 AM 55.9 °F 52.3 °F 88% 29.87 in 10.0 mi South 3.5 mph - N/A Rain Light Rain
2:34 AM 55.8 °F 52.5 °F 89% 29.90 in 4.0 mi NW 10.4 mph 16.1 mph N/A Rain Heavy Rain
2:54 AM 55.8 °F 53.4 °F 92% 29.90 in 5.0 mi Calm Calm - N/A Rain Rain
3:15 AM 55.0 °F 52.9 °F 92% 29.89 in 5.0 mi Calm Calm - N/A Rain Rain
3:34 AM 55.0 °F 53.2 °F 94% 29.89 in 7.0 mi Calm Calm - N/A Rain Rain
3:54 AM 55.4 °F 53.6 °F 94% 29.89 in 10.0 mi Calm Calm - N/A Rain Light Rain
4:14 AM 55.4 °F 53.6 °F 94% 29.88 in 10.0 mi Calm Calm - N/A Rain Rain
4:34 AM 54.9 °F 53.1 °F 94% 29.87 in 10.0 mi Calm Calm - N/A   Overcast
4:54 AM 54.9 °F 53.1 °F 94% 29.88 in 10.0 mi Calm Calm - N/A   Overcast
5:14 AM 54.0 °F 52.2 °F 94% 29.89 in 7.0 mi North 3.5 mph - N/A   Scattered Clouds
5:34 AM 53.1 °F 51.4 °F 94% 29.89 in 7.0 mi Calm Calm - N/A   Clear
5:54 AM 52.3 °F 50.7 °F 94% 29.89 in 1.8 mi West 3.5 mph - N/A   Mist
6:14 AM 51.8 °F 50.4 °F 95% 29.90 in 3.0 mi SW 3.5 mph - N/A   Clear
6:34 AM 52.7 °F 51.1 °F 94% 29.91 in 3.0 mi Calm Calm - N/A   Mostly Cloudy
6:54 AM 53.6 °F 52.0 °F 94% 29.91 in 0.2 mi Calm Calm - N/A Fog Fog
7:14 AM 54.0 °F 52.7 °F 95% 29.92 in 0.2 mi Calm Calm - N/A Fog Fog
7:54 AM 53.6 °F 52.3 °F 95% 29.94 in 0.2 mi Calm Calm - N/A Fog Fog
8:14 AM 54.3 °F 52.9 °F 95% 29.95 in 0.2 mi Calm Calm - N/A Fog Fog
8:34 AM 54.5 °F 53.2 °F 96% 29.95 in 0.2 mi Calm Calm - N/A Fog Fog
8:54 AM 54.9 °F 53.6 °F 96% 29.96 in 0.2 mi Calm Calm - N/A Fog Fog
9:14 AM 55.6 °F 54.3 °F 96% 29.97 in 0.2 mi Calm Calm - N/A Fog Fog
9:35 AM 56.8 °F 55.6 °F 96% 29.97 in 7.0 mi Calm Calm - N/A   Mostly Cloudy
9:54 AM 58.1 °F 56.7 °F 95% 29.98 in 10.0 mi Calm Calm - N/A   Scattered Clouds
10:14 AM 59.4 °F 57.4 °F 93% 29.99 in 10.0 mi Calm Calm - N/A   Clear
10:30 AM 60.4 °F 56.8 °F 88% 29.99 in 10.0 mi North 3.5 mph - N/A   Clear
10:45 AM 62.6 °F 55.4 °F 77% 30.00 in 10.0 mi North 4.6 mph - N/A   Scattered Clouds
11:03 AM 61.2 °F 55.6 °F 82% 30.00 in 10.0 mi North 4.6 mph - N/A   Mostly Cloudy
11:34 AM 63.7 °F 56.7 °F 78% 30.01 in 10.0 mi NE 4.6 mph - N/A   Mostly Cloudy
12:14 PM 65.3 °F 55.0 °F 69% 30.01 in 10.0 mi Calm Calm - N/A   Clear
12:34 PM 66.2 °F 54.7 °F 66% 30.02 in 10.0 mi Calm Calm - N/A   Scattered Clouds
12:54 PM 66.6 °F 53.6 °F 63% 30.02 in 10.0 mi East 3.5 mph - N/A   Scattered Clouds
1:14 PM 66.4 °F 52.5 °F 61% 30.02 in 10.0 mi NNW 3.5 mph - N/A   Mostly Cloudy
1:34 PM 68.0 °F 53.6 °F 60% 30.02 in 10.0 mi NNE 3.5 mph - N/A   Mostly Cloudy
1:54 PM 69.4 °F 53.1 °F 56% 30.02 in 10.0 mi Calm Calm - N/A   Scattered Clouds
2:14 PM 67.5 °F 52.5 °F 59% 30.02 in 10.0 mi North 3.5 mph - N/A   Mostly Cloudy
2:34 PM 70.5 °F 52.9 °F 54% 30.02 in 10.0 mi NE 3.5 mph - N/A   Scattered Clouds
2:54 PM 70.9 °F 52.3 °F 52% 30.02 in 10.0 mi NW 6.9 mph - N/A   Mostly Cloudy
3:15 PM 68.4 °F 52.0 °F 56% 30.03 in 10.0 mi Calm Calm - N/A   Scattered Clouds
3:34 PM 71.8 °F 52.5 °F 51% 30.02 in 10.0 mi NNW 5.8 mph - N/A   Scattered Clouds
3:54 PM 72.3 °F 52.7 °F 50% 30.02 in 10.0 mi NNW 8.1 mph - N/A   Mostly Cloudy
4:14 PM 70.0 °F 51.3 °F 51% 30.02 in 10.0 mi North 4.6 mph - N/A   Mostly Cloudy
4:34 PM 70.3 °F 51.3 °F 51% 30.02 in 10.0 mi WNW 5.8 mph - N/A   Scattered Clouds
5:14 PM 71.8 °F 50.9 °F 48% 30.03 in 10.0 mi WNW 8.1 mph - N/A   Mostly Cloudy
5:34 PM 69.6 °F 49.5 °F 49% 30.04 in 10.0 mi NNW 10.4 mph - N/A   Overcast
5:54 PM 69.6 °F 50.4 °F 50% 30.04 in 10.0 mi NNW 11.5 mph - N/A   Mostly Cloudy
6:14 PM 67.5 °F 51.3 °F 56% 30.05 in 10.0 mi NW 8.1 mph - N/A   Mostly Cloudy
6:34 PM 66.6 °F 51.8 °F 59% 30.06 in 10.0 mi NW 5.8 mph - N/A   Scattered Clouds
6:54 PM 68.0 °F 51.6 °F 56% 30.06 in 10.0 mi NW 8.1 mph - N/A   Clear
7:14 PM 67.1 °F 50.9 °F 56% 30.06 in 10.0 mi NW 9.2 mph - N/A   Clear
7:34 PM 65.7 °F 50.5 °F 58% 30.07 in 10.0 mi WNW 6.9 mph - N/A   Clear
7:55 PM 63.7 °F 50.0 °F 61% 30.07 in 10.0 mi WNW 9.2 mph - N/A   Clear
8:14 PM 62.4 °F 49.5 °F 63% 30.08 in 10.0 mi NW 5.8 mph - N/A   Clear
8:34 PM 61.3 °F 49.3 °F 65% 30.08 in 10.0 mi NW 6.9 mph - N/A   Clear
8:54 PM 60.1 °F 49.6 °F 68% 30.09 in 10.0 mi NW 5.8 mph - N/A   Clear
9:14 PM 59.0 °F 50.0 °F 72% 30.10 in 10.0 mi NW 3.5 mph - N/A   Clear
9:35 PM 57.0 °F 50.0 °F 77% 30.10 in 10.0 mi Calm Calm - N/A   Clear
9:54 PM 56.8 °F 50.4 °F 79% 30.10 in 10.0 mi Calm Calm - N/A   Clear
10:14 PM 54.5 °F 49.3 °F 83% 30.11 in 10.0 mi Calm Calm - N/A   Clear
10:34 PM 56.5 °F 49.8 °F 78% 30.12 in 10.0 mi Calm Calm - N/A   Clear
10:54 PM 56.3 °F 49.1 °F 77% 30.12 in 10.0 mi Calm Calm - N/A   Clear
11:14 PM 56.3 °F 48.7 °F 76% 30.12 in 10.0 mi Calm Calm - N/A   Clear
11:34 PM 55.8 °F 48.6 °F 77% 30.12 in 10.0 mi NNW 3.5 mph - N/A   Clear
11:54 PM 55.0 °F 48.4 °F 78% 30.13 in 10.0 mi Calm Calm - N/A   Clear